Tracking 27422 objects as of 30-May-2023
HD Live streaming from Space Station
objects crossing your sky now

STARLINK-2258

Track STARLINK-2258 now!
10-day predictions
STARLINK-2258 is classified as:


NORAD ID: 47860
Int'l Code: 2021-021A
Perigee: 553.7 km
Apogee: 555.1 km
Inclination: 53.1 °
Period: 95.6 minutes
Semi major axis: 6925 km
RCS: Unknown
Launch date: March 14, 2021
Source: United States (US)
Launch site: AIR FORCE EASTERN TEST RANGE (AFETR)
Your satellite tracking list
Your tracking list is empty




NASA's NSSDC Master Catalog

Two Line Element Set (TLE):
1 47860U 21021A   23150.00687706  .00000988  00000-0  85201-4 0  9991
2 47860  53.0540 156.7083 0001016  83.7603 276.3501 15.06398600122624
Source of the keplerian elements: AFSPC